Stations météo

réclame
Mon MeteoGroup
Hemavan-Skorvfjallet, Suède (2103): Température de l'air & dewpoint: 12.02.2019 01:00:00 - 18.02.2019 01:00:00 (CET)
Date & Time tt [°C] td [°C]
18.02.2019 01:00:00 -6,2 -6,7
18.02.2019 00:00:00 -6,1 -6,6
17.02.2019 23:00:00 -6,1 -6,6
17.02.2019 22:00:00 -6,3 -7,5
17.02.2019 21:00:00 -5,9 -9,4
17.02.2019 20:00:00 -5,7 -9,6
17.02.2019 19:00:00 -5,9 -9,3
17.02.2019 18:00:00 -6,0 -8,7
17.02.2019 17:00:00 -6,4 -8,2
17.02.2019 16:00:00 -6,7 -8,1
17.02.2019 15:00:00 -5,4 -7,7
17.02.2019 14:00:00 -4,8 -9,2
17.02.2019 13:00:00 -5,0 -8,1
17.02.2019 12:00:00 -5,2 -8,3
17.02.2019 11:00:00 -4,9 -7,5
17.02.2019 10:00:00 -6,7 -8,4
17.02.2019 09:00:00 -6,3 -8,1
17.02.2019 08:00:00 -5,4 -9,1
17.02.2019 07:00:00 -5,1 -9,2
17.02.2019 06:00:00 -4,6 -9,6
17.02.2019 05:00:00 -4,2 -8,7
17.02.2019 04:00:00 -4,4 -6,1
17.02.2019 03:00:00 -4,5 -5,3
17.02.2019 02:00:00 -4,6 -5,0
17.02.2019 01:00:00 -4,5 -5,0
17.02.2019 00:00:00 - -
16.02.2019 23:00:00 -4,9 -5,3
16.02.2019 22:00:00 -4,6 -5,0
16.02.2019 21:00:00 -4,5 -4,9
16.02.2019 20:00:00 -4,3 -4,7
16.02.2019 19:00:00 -3,8 -4,1
16.02.2019 18:00:00 -3,8 -4,1
16.02.2019 17:00:00 -3,7 -4,0
16.02.2019 16:00:00 -4,1 -4,4
16.02.2019 15:00:00 -4,3 -4,7
16.02.2019 14:00:00 -4,4 -5,5
16.02.2019 13:00:00 -3,6 -4,9
16.02.2019 12:00:00 -3,3 -4,6
16.02.2019 11:00:00 -3,1 -5,7
16.02.2019 10:00:00 -2,4 -5,7
16.02.2019 09:00:00 -2,0 -3,9
16.02.2019 08:00:00 -2,3 -2,6
16.02.2019 07:00:00 -1,2 -2,2
16.02.2019 06:00:00 - -
16.02.2019 05:00:00 0,2 0,1
16.02.2019 04:00:00 1,0 -0,3
16.02.2019 03:00:00 3,9 -4,6
16.02.2019 02:00:00 - -
16.02.2019 01:00:00 3,9 -4,6
16.02.2019 00:00:00 2,7 0,9
15.02.2019 23:00:00 2,5 1,2
15.02.2019 22:00:00 2,5 1,9
15.02.2019 21:00:00 1,5 1,5
15.02.2019 20:00:00 1,0 1,0
15.02.2019 19:00:00 1,1 1,1
15.02.2019 18:00:00 1,1 1,1
15.02.2019 17:00:00 0,8 0,8
15.02.2019 16:00:00 -0,7 -0,7
15.02.2019 15:00:00 -2,0 -2,0
15.02.2019 14:00:00 -2,1 -2,1
15.02.2019 13:00:00 -2,0 -2,0
15.02.2019 12:00:00 -2,0 -2,0
15.02.2019 11:00:00 -2,3 -2,3
15.02.2019 10:00:00 -2,7 -2,8
15.02.2019 09:00:00 -2,0 -2,0
15.02.2019 08:00:00 -1,7 -2,0
15.02.2019 07:00:00 -1,1 -2,7
15.02.2019 06:00:00 -0,9 -2,5
15.02.2019 05:00:00 -1,0 -2,3
15.02.2019 04:00:00 -0,8 -1,8
15.02.2019 03:00:00 -1,2 -1,8
15.02.2019 02:00:00 -1,2 -1,9
15.02.2019 01:00:00 -0,8 -1,5
15.02.2019 00:00:00 -1,4 -1,8
14.02.2019 23:00:00 -1,2 -1,8
14.02.2019 22:00:00 -0,6 -1,3
14.02.2019 21:00:00 -0,8 -1,6
14.02.2019 20:00:00 -1,1 -1,4
14.02.2019 19:00:00 0,2 -0,2
14.02.2019 18:00:00 0,2 0,1
14.02.2019 17:00:00 0,3 0,3
14.02.2019 16:00:00 0,1 0,1
14.02.2019 15:00:00 0,0 0,0
14.02.2019 14:00:00 0,3 0,3
14.02.2019 13:00:00 0,0 0,0
14.02.2019 12:00:00 0,8 0,8
14.02.2019 11:00:00 1,2 1,2
14.02.2019 10:00:00 0,6 0,6
14.02.2019 09:00:00 1,2 1,2
14.02.2019 08:00:00 - -
14.02.2019 07:00:00 0,1 0,1
14.02.2019 06:00:00 -1,0 -1,0
14.02.2019 05:00:00 -1,5 -1,5
14.02.2019 04:00:00 -2,1 -2,1
14.02.2019 03:00:00 -2,2 -2,2
14.02.2019 02:00:00 -2,4 -2,4
14.02.2019 01:00:00 -2,2 -2,2
14.02.2019 00:00:00 -2,1 -2,2
13.02.2019 23:00:00 -2,6 -3,0
13.02.2019 22:00:00 -2,5 -2,7
13.02.2019 21:00:00 -3,2 -3,5
13.02.2019 20:00:00 - -
13.02.2019 19:00:00 -4,2 -4,7
13.02.2019 18:00:00 -3,6 -4,0
13.02.2019 17:00:00 -4,3 -4,7
13.02.2019 16:00:00 -3,3 -3,6
13.02.2019 15:00:00 -1,8 -1,8
13.02.2019 14:00:00 -0,1 -0,1
13.02.2019 13:00:00 -0,5 -0,5
13.02.2019 12:00:00 -1,0 -1,0
13.02.2019 11:00:00 -1,6 -1,6
13.02.2019 10:00:00 -1,6 -1,6
13.02.2019 09:00:00 -2,5 -2,6
13.02.2019 08:00:00 -3,6 -3,6
13.02.2019 07:00:00 -6,3 -6,8
13.02.2019 06:00:00 -6,8 -7,3
13.02.2019 05:00:00 -7,1 -7,8
13.02.2019 04:00:00 -7,2 -7,7
13.02.2019 03:00:00 -7,9 -8,6
13.02.2019 02:00:00 -7,9 -8,7
13.02.2019 01:00:00 -7,9 -8,7
13.02.2019 00:00:00 -8,0 -8,8
12.02.2019 23:00:00 -8,3 -9,1
12.02.2019 22:00:00 -8,2 -9,1
12.02.2019 21:00:00 -8,2 -8,8
12.02.2019 20:00:00 -8,2 -8,9
12.02.2019 19:00:00 -8,0 -8,7
12.02.2019 18:00:00 -8,5 -9,2
12.02.2019 17:00:00 -8,3 -9,2
12.02.2019 16:00:00 -8,2 -9,1
12.02.2019 15:00:00 -7,2 -9,0
12.02.2019 14:00:00 -7,4 -9,3
12.02.2019 13:00:00 -7,1 -9,5
12.02.2019 12:00:00 -7,1 -10,0
12.02.2019 11:00:00 -7,2 -10,1
12.02.2019 10:00:00 -7,5 -8,7
12.02.2019 09:00:00 -8,0 -8,9
12.02.2019 08:00:00 -8,2 -9,0
12.02.2019 07:00:00 -8,2 -9,0
12.02.2019 06:00:00 -7,8 -8,6
12.02.2019 05:00:00 -7,2 -7,9
12.02.2019 04:00:00 -6,6 -7,1
12.02.2019 03:00:00 -6,3 -6,8
12.02.2019 02:00:00 -6,6 -7,3
12.02.2019 01:00:00 -6,7 -7,4

tt = Température de l'air
td = dewpoint

stations d'obs. à proximité